Flag for Belgium Weather past 2 weeks in Charleroi, Belgium

Now
73 °F

Scattered clouds.


Feels Like: 76 °F
Forecast: 55 / 62 °F
Wind: 6 mph from West

Location: Charleroi / Gosselies

Current Time: Sep 20, 2014 at 6:40:55 PM

Latest Report: Sep 20, 2014 at 3:20 PM


Visibility: N/A

Pressure: 29.98 "Hg

Humidity: 69%

Dew point: 63 °F

Location of CharleroiLocation

Historic Weather in Charleroi — Graph

°F

Charleroi temperature yesterday

Maximum temperature yesterday: 77 °F (at 1:50 PM)
Minimum temperature yesterday: 61 °F (at 2:20 AM)
Average temperature yesterday: 67 °F

Past Weeks' High & Low Weather Summary

 TemperatureHumidityPressure
High77 °F (Sep 17, 2:20 PM)100% (Sep 6, 1:50 AM)30.27 "Hg (Sep 6, 1:50 AM)
Low48 °F (Sep 12, 4:20 AM)44% (Sep 17, 2:50 PM)29.80 "Hg (Sep 18, 5:20 AM)
Average61 °F79%30.03 "Hg
* Reported Sep 5 2:20 PM — Sep 20 2:50 PM, Charleroi, Weather by CustomWeather, © 2014

Note: Actual official high and low records may vary slightly from our data, if they occured in-between our weather recording intervals... More about our weather records

Advertising

Charleroi weather history for previous 24 hours

 ConditionsComfort  
Time TempWeatherWind HumidityBarometerVisibility
2:50 PM
Sep 20
73 °FScattered clouds.8 mph69%29.98 "HgN/A
2:20 PM72 °FPartly sunny.8 mph73%29.98 "HgN/A
1:50 PM72 °FScattered clouds.8 mph73%29.98 "HgN/A
1:20 PM70 °FScattered clouds.7 mph78%29.98 "HgN/A
12:50 PM70 °FScattered clouds.6 mph78%29.98 "HgN/A
12:20 PM70 °FScattered clouds.6 mph78%29.98 "HgN/A
11:50 AM70 °FScattered clouds.5 mph78%29.98 "HgN/A
11:20 AM68 °FPassing clouds.5 mph83%29.98 "HgN/A
10:50 AM66 °FSunny.6 mph88%29.98 "Hg10 mi
10:20 AM64 °FSunny.6 mph88%29.98 "Hg10 mi
9:50 AM64 °FSunny.7 mph88%29.98 "Hg10 mi
9:20 AM63 °FSunny.5 mph94%29.98 "Hg10 mi
8:50 AM63 °FPassing clouds.5 mph94%29.95 "HgN/A
8:20 AM63 °FClear.7 mph94%29.95 "Hg10 mi
7:50 AM63 °FClear.6 mph94%29.95 "Hg10 mi
7:20 AM63 °FClear.5 mph94%29.95 "Hg10 mi
6:50 AM63 °FClear.7 mph94%29.95 "Hg10 mi
6:20 AM63 °FClear.7 mph88%29.95 "Hg10 mi
5:50 AM63 °FClear.7 mph94%29.95 "Hg10 mi
5:20 AM63 °FClear.7 mph94%29.95 "Hg10 mi
4:50 AM63 °FClear.7 mph94%29.95 "Hg10 mi
4:20 AM63 °FClear.7 mph94%29.95 "Hg10 mi
3:50 AM63 °FClear.7 mph94%29.95 "Hg10 mi
2:50 AM63 °FClear.8 mph94%29.95 "Hg10 mi
2:20 AM64 °FClear.7 mph88%29.95 "Hg10 mi
1:50 AM64 °FClear.7 mph88%29.95 "Hg10 mi
1:20 AM64 °FClear.5 mph88%29.95 "Hg10 mi
12:50 AM63 °FClear.1 mph88%29.95 "Hg10 mi
12:20 AM63 °FClear.1 mph94%29.95 "Hg10 mi
11:50 PM
Sep 19
64 °FPassing clouds.5 mph88%29.95 "HgN/A
11:20 PM66 °FClear.3 mph83%29.95 "Hg10 mi
10:50 PM64 °FPassing clouds.3 mph88%29.92 "HgN/A
10:20 PM64 °FClear.2 mph88%29.92 "Hg10 mi
9:50 PM66 °FPassing clouds.2 mph83%29.92 "HgN/A
9:20 PM68 °FPassing clouds.2 mph78%29.92 "HgN/A
8:50 PM68 °FPassing clouds.2 mph78%29.92 "HgN/A
8:20 PM70 °FPassing clouds.3 mph73%29.92 "HgN/A
7:50 PM70 °FPassing clouds.3 mph69%29.89 "HgN/A
7:20 PM72 °FPassing clouds.6 mph69%29.89 "HgN/A
6:50 PM73 °FPassing clouds.7 mph65%29.89 "HgN/A
6:20 PM73 °FPassing clouds.8 mph65%29.89 "HgN/A
Weather by CustomWeather, © 2014

See weather overviewHow to use our weather pages